Wetbulb
32.68 34.07 33.58 32.24 32.86 34.28 32.52 31.65 28.84 29.86 29.70 33.88 38.74 39.12 39.22 39.83 38.96 38.26 38.26 38.24 37.96 37.74 37.21 37.06 37.48 35.35 34.81 34.26 34.44 34.55 33.99 33.51 34.86 35.80 36.65 36.51 36.33 35.95 36.00 35.89 36.22 38.60 36.24 33.29
31.22 33.73 33.37 31.50 33.29 32.95 33.15 33.01 32.78 32.28 32.43 37.03 37.87 38.85 38.71 39.14 38.50 37.42 37.89 38.02 38.07 38.53 39.11 38.66 35.85 33.92 33.53 33.71 33.92 33.97 33.27 33.21 35.22 35.64 35.91 36.13 35.45 34.82 35.37 34.70 34.04 34.19 31.68 30.01
23.65 29.16 27.92 24.48 30.82 32.71 32.54 33.46 33.55 29.71 34.71 37.83 37.03 38.34 38.57 37.99 38.04 37.59 37.75 38.22 38.71 39.03 38.38 36.16 34.42 33.33 32.68 32.71 33.10 32.74 32.38 32.98 34.92 34.96 34.60 34.73 34.18 34.00 33.64 32.85 32.24 29.62 27.63 27.49
20.78 22.64 16.63 31.49 35.76 35.34 34.66 35.31 35.81 35.61 36.49 37.81 37.12 37.23 38.91 38.98 38.15 37.62 38.08 38.59 38.74 38.28 35.26 33.52 32.68 32.27 32.10 32.07 31.78 31.59 31.49 32.75 33.97 33.75 33.26 33.34 32.91 32.65 32.19 31.32 30.16 27.81 27.36 27.23
19.59 20.99 27.30 31.92 34.34 34.70 33.70 33.52 38.12 36.99 36.88 37.45 37.20 37.68 36.77 39.25 38.70 38.79 39.61 38.86 36.56 34.69 33.14 32.24 31.77 31.54 31.23 31.54 31.18 30.98 31.85 32.75 33.26 33.14 32.64 32.48 31.04 30.27 29.88 29.13 27.59 27.81 27.85 26.08
18.04 16.20 15.10 29.63 34.78 38.50 37.58 28.90 37.75 38.73 37.09 36.75 36.75 31.10 37.76 38.72 38.62 38.11 37.89 35.45 33.79 32.60 32.00 31.28 30.96 31.24 31.40 31.06 30.24 30.56 31.45 32.50 32.97 32.60 31.76 29.92 29.48 28.58 28.91 27.38 27.81 26.93 26.04 24.69
13.42 15.34 24.51 33.04 38.16 39.30 28.36 30.19 37.89 39.16 37.91 36.47 35.69 37.90 38.46 38.97 38.74 39.41 35.94 33.52 33.11 32.48 31.37 31.03 31.40 31.62 30.66 29.94 30.09 31.46 31.86 32.24 31.91 31.45 29.85 29.36 28.01 27.06 26.51 26.51 26.01 24.16 24.27 23.70
21.64 14.66 21.57 36.52 38.58 33.03 36.17 36.13 39.51 39.29 38.63 38.79 38.22 37.76 38.73 39.66 37.02 33.01 32.94 32.88 32.53 31.26 30.95 31.23 31.60 30.80 29.70 29.56 31.29 31.84 31.44 31.30 30.66 29.81 30.45 29.64 27.01 26.55 26.81 24.47 23.52 21.94 10.28 16.47
29.10 29.27 35.47 37.39 37.82 39.20 39.11 38.76 40.08 39.86 40.46 41.50 38.82 38.78 39.93 35.14 32.33 32.20 32.48 31.85 31.18 31.11 31.22 31.76 31.28 30.61 29.71 30.79 31.27 31.08 30.37 29.66 29.39 29.84 30.27 29.09 25.96 25.11 24.14 23.41 19.68 20.24 21.69 15.82
32.13 35.86 36.19 37.47 39.08 39.94 40.31 40.44 41.02 41.61 40.98 41.35 39.85 40.89 36.76 33.92 32.45 31.43 30.56 30.38 30.67 30.90 29.64 29.78 30.57 31.12 30.66 30.10 30.36 30.29 29.72 29.82 29.50 29.03 28.64 28.98 28.20 26.48 24.08 19.26 20.22 22.80 20.59 18.67
32.06 36.55 36.75 39.25 40.45 40.90 40.93 41.94 41.80 42.26 42.24 41.96 41.14 38.31 34.93 33.06 31.44 30.95 30.41 30.81 30.83 29.91 29.55 29.60 30.07 30.91 29.67 29.41 29.97 29.66 29.94 30.28 30.74 29.64 29.63 28.12 26.44 24.88 25.06 24.72 24.52 21.61 20.21 17.58
31.16 37.73 37.50 37.91 40.49 41.98 41.77 41.93 42.49 41.58 40.16 36.55 37.37 34.31 33.78 31.52 30.72 30.72 30.20 29.90 29.86 29.89 29.41 29.61 30.39 29.61 29.27 29.88 29.27 29.06 28.96 30.70 30.80 29.53 28.43 27.55 25.77 24.67 28.69 27.65 28.28 28.99 28.79 17.82
38.57 38.42 39.45 40.04 41.31 41.99 41.98 41.28 40.95 37.39 34.56 33.09 34.75 34.44 33.25 31.09 31.14 31.38 30.77 30.31 30.08 29.99 30.06 29.77 29.25 28.76 28.82 29.01 28.46 28.40 29.88 30.87 30.70 28.08 27.70 25.71 24.20 25.69 20.28 24.04 28.59 29.06 29.42 29.49
42.38 40.87 39.67 40.37 40.93 41.93 41.90 37.12 35.89 34.91 34.93 34.29 34.36 34.10 31.96 30.98 31.54 30.67 30.23 30.41 30.62 30.52 29.84 29.27 28.51 28.10 29.31 28.79 28.46 28.87 30.96 30.15 29.99 29.74 27.88 27.49 25.65 24.30 21.09 18.76 16.47 15.47 22.95 26.41
42.07 42.26 41.44 41.13 39.25 35.26 35.45 34.78 33.29 34.25 35.45 34.69 33.46 31.60 31.21 30.14 29.69 30.44 30.39 30.47 30.40 29.78 29.24 28.34 27.89 27.88 29.04 29.01 28.98 30.78 31.69 31.64 30.30 29.16 26.97 24.97 23.91 23.47 18.83 18.74 20.15 16.86 13.57 18.11
41.62 41.28 40.84 36.58 33.34 33.58 34.51 35.47 35.13 34.35 33.57 32.17 30.89 30.51 31.06 31.32 30.78 30.23 30.55 30.44 28.47 27.62 28.25 23.98 24.59 28.14 29.06 29.59 30.75 31.33 32.35 31.55 29.89 28.04 26.21 24.69 19.05 18.85 21.19 21.26 23.16 22.08 16.11 15.29
36.22 33.93 32.19 32.98 34.52 35.22 35.25 36.04 35.60 34.15 32.05 30.77 30.27 30.54 31.23 29.63 27.51 29.17 29.54 27.54 24.73 23.45 24.20 24.22 25.63 28.35 29.38 29.83 31.08 31.07 31.87 31.60 29.78 26.78 25.11 25.49 23.18 19.17 18.44 20.82 23.28 23.77 18.66 10.00
35.81 35.99 36.59 36.12 35.15 35.08 34.47 33.43 32.10 31.25 30.54 30.92 28.43 25.75 24.38 24.68 26.81 26.62 25.91 24.45 20.57 21.20 24.93 26.89 26.35 28.30 28.72 29.02 28.25 28.77 30.06 29.45 28.87 27.70 26.10 25.36 24.77 20.47 18.08 19.03 20.73 21.38 20.34 14.76
36.39 35.92 36.60 36.67 36.40 34.48 33.26 31.65 30.82 30.46 28.13 27.13 25.87 27.25 26.10 24.64 25.07 25.74 22.92 19.76 20.80 21.79 27.18 26.07 26.95 26.09 28.87 29.69 28.53 28.98 29.97 29.61 28.93 27.00 26.09 19.13 11.54 15.51 15.20 19.67 22.16 21.37 19.07 19.72
34.52 34.87 34.27 33.08 31.79 30.34 29.29 29.92 28.37 29.29 30.03 26.66 24.04 22.84 24.86 26.14 22.04 20.16 17.98 22.26 26.62 27.87 27.61 27.18 25.81 25.71 27.86 29.99 29.19 29.33 29.83 30.14 27.95 25.15 22.34 18.52 14.25 13.29 18.11 20.17 17.33 17.62 19.37 21.28
30.79 30.47 30.16 30.17 29.71 28.40 27.36 27.11 26.47 27.73 28.49 23.86 23.74 24.84 22.88 24.82 22.34 20.20 23.29 25.09 27.68 24.77 26.15 23.74 24.85 26.62 28.30 30.23 29.99 30.46 30.80 30.53 28.20 24.98 23.38 22.79 23.85 22.61 21.43 19.95 19.56 20.85 22.05 23.46
30.11 29.68 26.93 26.65 27.18 28.43 28.62 28.36 28.69 26.29 25.54 22.57 18.42 18.42 26.99 27.28 25.54 21.15 23.28 24.86 27.83 22.50 23.07 22.92 24.95 23.82 25.60 25.04 29.95 30.50 30.85 30.56 29.31 27.56 25.55 25.70 25.52 24.72 24.30 23.90 23.40 23.90 24.47 24.28
30.83 30.98 29.75 25.84 24.26 28.49 28.00 26.31 22.37 21.32 22.66 23.53 23.17 23.54 22.45 26.19 24.26 23.80 27.96 27.03 24.77 22.07 21.84 21.62 21.51 23.37 25.69 29.56 30.03 30.41 29.87 27.20 27.77 29.20 28.93 26.28 26.52 26.51 26.45 26.03 26.21 25.73 25.58 25.21
30.01 29.74 29.63 28.90 24.08 24.88 26.86 29.73 28.87 28.31 22.22 24.64 24.63 23.31 22.66 24.37 24.19 24.90 27.77 31.35 27.31 20.45 24.19 26.58 27.79 27.97 28.71 27.02 28.84 29.72 29.61 29.38 28.86 28.90 27.57 25.42 26.31 26.06 26.66 26.49 25.75 26.48 26.01 26.47
27.81 28.87 28.00 26.40 26.94 27.07 27.88 27.99 26.76 26.78 26.85 27.29 26.09 26.34 24.84 23.34 26.40 28.07 19.12 24.16 22.45 25.55 26.34 24.40 26.57 23.27 23.96 21.49 16.81 16.71 18.01 18.69 17.88 18.37 20.21 21.67 23.98 26.50 27.42 26.82 26.26 26.01 26.32 27.01
27.36 26.52 26.23 27.23 26.55 26.06 25.98 25.59 24.79 26.26 27.02 26.69 28.02 29.39 28.98 25.63 24.27 25.46 28.06 27.86 24.62 24.92 24.60 19.66 18.50 15.08 11.96 11.21 9.56 9.91 10.97 12.27 11.40 12.16 11.83 12.30 14.13 15.80 19.32 23.13 27.99 28.11 27.28 27.32
25.74 24.45 23.65 22.88 23.54 23.25 22.54 22.59 22.95 22.96 24.67 25.95 26.05 28.78 28.89 28.95 29.66 30.00 29.94 28.73 26.96 17.42 21.59 19.21 15.59 12.96 10.92 10.87 9.50 10.17 8.47 8.46 7.46 10.10 10.81 10.77 11.22 12.27 13.63 15.19 20.88 27.24 28.66 29.24
MSLP
1019.66 1019.42 1018.92 1018.71 1018.82 1019.32 1020.07 1020.47 1021.10 1020.38 1020.30 1019.65 1019.66 1020.05 1020.54 1021.46 1022.37 1023.02 1023.42 1023.61 1023.73 1023.95 1024.10 1024.27 1024.49 1024.76 1024.96 1025.01 1025.06 1025.02 1025.14 1025.11 1024.91 1024.86 1024.81 1024.69 1024.63 1024.45 1024.23 1024.03 1023.76 1023.41 1023.51 1023.51
1020.94 1020.58 1020.21 1019.60 1019.09 1019.14 1019.46 1019.68 1019.81 1019.82 1019.38 1018.85 1019.16 1019.87 1020.80 1021.36 1022.10 1022.63 1022.99 1023.21 1023.42 1023.71 1023.92 1024.06 1024.46 1024.72 1024.92 1024.99 1024.95 1024.94 1024.97 1024.92 1024.81 1024.67 1024.55 1024.56 1024.41 1024.21 1024.09 1023.99 1023.86 1023.72 1023.62 1023.63
1022.46 1021.82 1020.93 1019.92 1018.25 1018.26 1018.37 1018.36 1018.61 1019.16 1018.37 1018.91 1019.47 1019.77 1020.11 1021.01 1021.65 1022.09 1022.50 1022.75 1023.05 1023.30 1023.63 1023.99 1024.33 1024.67 1024.79 1024.83 1024.84 1024.84 1024.86 1024.65 1024.55 1024.54 1024.58 1024.43 1024.31 1024.19 1023.98 1023.89 1023.86 1023.87 1023.88 1023.91
1024.22 1023.23 1021.85 1018.12 1017.46 1017.35 1017.49 1017.47 1017.66 1018.04 1018.22 1018.70 1019.01 1019.59 1020.06 1020.60 1021.16 1021.80 1022.09 1022.39 1022.75 1023.07 1023.42 1023.80 1024.25 1024.53 1024.74 1024.80 1024.81 1024.78 1024.63 1024.50 1024.39 1024.44 1024.43 1024.29 1024.22 1023.94 1023.73 1023.67 1023.76 1023.99 1024.21 1024.24
1025.16 1024.09 1021.32 1018.15 1017.23 1017.00 1017.04 1016.82 1016.88 1017.63 1018.34 1018.97 1019.62 1019.97 1020.35 1020.43 1020.81 1021.20 1021.66 1022.01 1022.40 1022.78 1023.27 1023.80 1024.24 1024.59 1024.78 1024.78 1024.72 1024.61 1024.47 1024.46 1024.34 1024.22 1024.15 1024.09 1024.05 1023.81 1023.60 1023.65 1023.85 1023.96 1024.17 1024.41
1025.76 1024.84 1022.30 1018.25 1016.77 1016.42 1016.50 1016.75 1016.23 1017.04 1018.23 1019.04 1019.82 1020.54 1019.54 1019.73 1020.46 1021.01 1021.43 1021.84 1022.37 1022.91 1023.45 1023.98 1024.40 1024.59 1024.73 1024.74 1024.73 1024.65 1024.52 1024.40 1024.16 1024.03 1023.88 1023.91 1023.82 1023.63 1023.48 1023.63 1023.69 1023.98 1024.31 1024.52
1025.32 1023.99 1020.89 1017.57 1016.76 1016.51 1017.07 1016.58 1016.31 1017.01 1017.83 1018.90 1019.45 1018.83 1018.84 1019.16 1020.06 1020.51 1021.11 1021.96 1022.59 1023.17 1023.80 1024.15 1024.41 1024.62 1024.81 1024.88 1024.85 1024.63 1024.36 1024.12 1023.86 1023.63 1023.64 1023.64 1023.69 1023.60 1023.50 1023.62 1023.91 1024.19 1024.40 1024.61
1024.48 1022.85 1019.81 1017.19 1017.17 1016.97 1015.85 1015.81 1016.12 1016.71 1017.23 1017.89 1018.10 1018.65 1019.07 1019.52 1020.25 1020.91 1021.55 1022.26 1023.06 1023.68 1024.03 1024.29 1024.53 1024.78 1024.85 1024.86 1024.58 1024.36 1024.15 1023.96 1023.64 1023.39 1023.48 1023.51 1023.63 1023.58 1023.61 1023.79 1024.14 1024.46 1024.76 1024.87
1021.09 1019.10 1017.48 1016.78 1016.19 1015.50 1015.58 1015.86 1016.02 1016.28 1016.41 1016.95 1018.00 1018.69 1019.23 1020.01 1020.92 1021.41 1021.77 1022.54 1023.33 1023.86 1024.20 1024.46 1024.63 1024.73 1024.82 1024.67 1024.51 1024.32 1024.16 1023.88 1023.57 1023.34 1023.24 1023.35 1023.59 1023.65 1023.77 1023.92 1024.09 1024.33 1024.66 1024.82
1019.45 1017.22 1016.66 1016.31 1015.67 1015.50 1015.46 1015.64 1015.65 1016.03 1016.26 1016.60 1017.45 1018.30 1019.11 1020.04 1020.94 1022.37 1022.85 1023.22 1023.57 1023.98 1024.33 1024.66 1024.65 1024.63 1024.72 1024.54 1024.34 1024.18 1024.06 1023.78 1023.47 1023.39 1023.27 1023.14 1023.22 1023.32 1023.56 1023.69 1023.84 1024.11 1024.37 1024.56
1017.97 1016.67 1015.95 1015.53 1015.13 1014.83 1014.85 1015.16 1015.44 1015.67 1015.94 1016.46 1017.25 1018.40 1019.34 1020.43 1021.48 1022.05 1022.65 1023.25 1023.59 1024.07 1024.52 1024.69 1024.66 1024.64 1024.46 1024.32 1024.20 1024.06 1023.87 1023.62 1023.26 1023.10 1023.11 1023.03 1022.97 1023.08 1023.12 1023.12 1023.25 1023.49 1023.77 1023.97
1016.07 1015.14 1015.19 1014.88 1014.23 1014.38 1014.87 1014.99 1015.14 1015.77 1016.36 1017.10 1017.64 1018.91 1020.10 1021.27 1021.78 1022.19 1022.83 1023.30 1023.76 1024.12 1024.35 1024.40 1024.38 1024.48 1024.36 1024.23 1024.08 1023.80 1023.50 1023.25 1023.07 1022.91 1022.85 1022.85 1022.86 1022.87 1022.72 1022.73 1022.79 1022.68 1022.72 1023.05
1014.75 1014.41 1014.59 1014.29 1014.36 1014.39 1014.74 1015.16 1015.61 1016.26 1016.84 1017.47 1018.51 1019.48 1020.65 1021.60 1021.94 1022.34 1022.89 1023.42 1023.75 1023.98 1024.12 1024.15 1024.22 1024.29 1024.06 1023.99 1023.74 1023.46 1023.14 1022.89 1022.73 1022.62 1022.55 1022.66 1022.68 1022.73 1022.86 1022.52 1022.52 1022.44 1022.49 1022.52
1014.25 1014.67 1014.64 1014.47 1014.44 1014.57 1014.97 1015.61 1016.20 1017.04 1017.93 1018.84 1019.39 1020.49 1021.36 1021.70 1022.10 1022.49 1023.03 1023.39 1023.66 1023.83 1023.84 1023.99 1024.01 1023.83 1023.70 1023.47 1023.18 1022.91 1022.62 1022.37 1022.21 1022.08 1022.03 1022.20 1022.30 1022.32 1022.41 1022.68 1022.86 1022.51 1022.24 1022.31
1014.52 1014.46 1014.46 1014.60 1015.01 1015.64 1016.11 1016.68 1017.76 1018.79 1019.34 1019.82 1020.81 1021.14 1021.53 1022.07 1022.39 1022.65 1022.99 1023.32 1023.51 1023.53 1023.70 1023.71 1023.47 1023.35 1022.98 1022.72 1022.56 1022.26 1021.97 1021.70 1021.58 1021.49 1021.47 1021.60 1021.82 1021.94 1022.07 1022.29 1022.39 1022.39 1022.35 1022.13
1015.12 1015.05 1015.26 1015.74 1016.47 1017.06 1017.38 1017.87 1018.47 1019.89 1021.02 1021.50 1021.75 1021.90 1021.98 1022.13 1022.41 1022.62 1022.81 1023.14 1023.57 1023.72 1023.28 1023.07 1023.24 1022.81 1022.41 1022.21 1021.95 1021.72 1021.45 1021.09 1021.04 1020.99 1021.04 1021.16 1021.29 1021.49 1021.70 1021.83 1021.86 1021.93 1022.03 1022.11
1015.90 1016.47 1016.84 1017.54 1018.14 1018.60 1019.14 1019.82 1020.44 1020.72 1021.28 1021.80 1021.99 1022.24 1022.51 1022.70 1022.63 1022.67 1022.79 1022.98 1023.18 1023.19 1022.91 1022.96 1022.74 1022.29 1021.95 1021.74 1021.50 1021.24 1020.79 1020.45 1020.44 1020.42 1020.43 1020.60 1020.79 1021.04 1021.10 1021.21 1021.22 1021.23 1021.26 1021.14
1017.73 1018.04 1018.51 1018.98 1019.65 1020.18 1020.82 1021.13 1021.43 1021.65 1021.63 1021.52 1022.08 1022.62 1022.75 1022.68 1022.67 1022.72 1022.80 1022.90 1023.00 1022.88 1022.70 1022.13 1021.70 1021.59 1021.41 1021.23 1020.97 1020.75 1020.35 1020.14 1019.83 1019.70 1019.70 1019.93 1020.09 1020.23 1020.39 1020.44 1020.39 1020.47 1020.52 1020.48
1019.58 1019.74 1020.25 1020.65 1020.88 1021.16 1021.37 1021.62 1021.95 1022.19 1022.19 1022.31 1022.69 1022.79 1022.69 1022.75 1022.61 1022.56 1022.70 1022.76 1023.06 1022.87 1021.70 1021.12 1020.93 1020.90 1020.71 1020.33 1020.19 1020.03 1019.76 1019.43 1019.08 1018.96 1019.07 1019.15 1019.33 1019.51 1019.74 1019.84 1019.80 1019.73 1019.66 1019.69
1021.16 1021.08 1021.09 1021.24 1021.58 1021.96 1022.10 1021.94 1022.20 1022.18 1022.22 1022.60 1022.91 1023.03 1022.82 1022.36 1022.26 1022.31 1022.47 1022.78 1022.15 1021.33 1020.77 1020.67 1020.61 1020.47 1020.08 1019.85 1019.53 1019.32 1019.06 1018.73 1018.45 1018.38 1018.45 1018.57 1018.75 1018.88 1018.96 1018.89 1018.72 1018.63 1018.59 1018.58
1021.93 1022.00 1022.11 1022.17 1022.13 1022.20 1022.28 1022.35 1022.56 1022.50 1022.51 1022.69 1022.89 1022.62 1022.51 1022.06 1022.07 1022.38 1022.58 1022.00 1020.53 1020.20 1020.15 1020.10 1020.08 1019.79 1019.48 1019.17 1018.97 1018.70 1018.37 1018.02 1017.81 1017.71 1017.62 1017.66 1017.74 1017.76 1017.69 1017.57 1017.50 1017.39 1017.29 1017.25
1022.08 1022.10 1022.21 1022.31 1022.38 1022.38 1022.18 1022.09 1022.05 1022.09 1022.15 1022.31 1022.35 1022.49 1022.56 1022.20 1021.84 1021.52 1021.22 1020.86 1019.70 1019.75 1019.75 1019.70 1019.48 1019.19 1019.02 1018.80 1018.43 1018.08 1017.75 1017.40 1017.13 1016.92 1016.83 1016.75 1016.63 1016.48 1016.27 1016.10 1015.92 1015.73 1015.61 1015.58
1022.42 1022.43 1022.41 1022.50 1022.70 1022.68 1022.53 1022.45 1022.41 1022.46 1022.55 1022.30 1022.22 1022.05 1021.93 1021.21 1020.89 1020.98 1020.18 1019.40 1019.36 1019.24 1019.21 1019.10 1018.90 1018.77 1018.60 1018.36 1017.95 1017.54 1017.29 1017.06 1016.79 1016.44 1016.15 1016.00 1015.89 1015.62 1015.31 1015.02 1014.73 1014.50 1014.30 1014.15
1023.08 1023.09 1023.10 1023.03 1023.13 1023.19 1023.04 1022.64 1022.50 1022.25 1022.02 1021.75 1021.52 1021.30 1021.13 1020.76 1020.07 1019.68 1019.17 1018.95 1018.96 1018.94 1018.86 1018.58 1018.45 1018.34 1018.27 1018.07 1017.66 1017.27 1016.98 1016.62 1016.24 1015.89 1015.64 1015.34 1015.02 1014.67 1014.27 1013.95 1013.68 1013.35 1013.15 1012.92
1023.47 1023.50 1023.50 1023.55 1023.67 1023.82 1023.58 1023.24 1022.90 1022.50 1022.12 1021.69 1021.34 1020.89 1020.58 1020.30 1020.12 1018.95 1018.87 1018.64 1018.42 1018.32 1018.11 1018.01 1018.07 1018.18 1018.34 1018.44 1018.41 1018.20 1017.97 1017.59 1017.28 1016.89 1016.34 1015.81 1015.09 1014.17 1013.41 1012.90 1012.53 1012.22 1011.95 1011.69
1024.51 1024.70 1024.81 1024.72 1024.78 1024.65 1024.40 1024.05 1023.59 1023.03 1022.40 1021.73 1021.19 1020.68 1020.03 1019.75 1019.34 1018.90 1018.42 1018.08 1017.90 1017.76 1017.76 1017.95 1018.18 1018.46 1018.66 1018.72 1018.70 1018.57 1018.31 1018.00 1017.71 1017.39 1017.01 1016.42 1015.73 1014.95 1013.94 1012.83 1011.58 1010.90 1010.62 1010.41
1025.47 1025.66 1025.66 1025.56 1025.52 1025.39 1025.25 1024.82 1024.13 1023.54 1022.97 1022.23 1021.23 1020.32 1019.59 1019.07 1018.49 1018.04 1017.65 1017.52 1017.44 1017.68 1017.98 1018.25 1018.38 1018.65 1018.82 1018.88 1018.88 1018.78 1018.56 1018.28 1018.00 1017.68 1017.26 1016.67 1015.93 1015.10 1014.10 1013.08 1011.69 1010.35 1009.54 1009.21
Wind_Speed
2 3 2 2 4 6 7 5 7 5 8 7 12 13 10 8 8 8 7 7 6 4 3 4 5 5 4 3 4 4 6 6 7 5 5 5 6 7 6 6 5 5 5 5
1 4 5 4 6 6 5 4 7 5 12 8 2 7 8 11 11 8 7 7 7 6 5 6 6 6 4 4 6 4 6 6 5 4 5 6 6 6 6 6 5 3 3 3
4 4 5 7 10 11 6 5 7 8 10 6 5 8 12 11 10 9 7 7 7 7 6 6 6 5 4 4 4 5 6 6 5 4 5 6 6 6 6 5 4 4 3 4
3 4 2 8 2 3 8 5 9 3 4 6 2 2 5 6 9 8 8 7 6 5 4 3 3 2 3 4 5 5 6 6 5 5 6 6 6 6 5 3 1 3 3 4
5 4 7 5 5 7 9 9 9 8 4 5 4 5 3 7 6 7 7 6 4 4 3 4 2 2 3 5 4 5 6 6 6 6 6 5 6 6 5 1 3 3 3 4
3 4 6 8 3 3 4 7 7 8 8 8 6 3 8 10 8 8 7 4 6 6 4 3 1 1 3 5 5 6 6 6 6 5 5 5 6 6 2 1 2 4 4 3
3 3 10 9 4 1 6 10 5 9 8 9 7 8 3 7 7 6 6 7 6 6 4 2 2 3 4 5 6 5 6 6 6 6 4 4 5 3 3 3 4 3 3 2
4 2 9 6 4 8 8 2 6 8 8 13 7 7 5 6 8 8 10 8 6 5 3 2 2 2 4 4 5 6 6 6 7 5 3 3 4 2 1 3 4 2 2 2
10 9 4 6 5 4 2 3 6 7 8 13 8 7 7 6 7 6 8 6 4 4 1 2 3 2 3 5 6 6 6 6 6 4 2 2 3 3 2 2 2 2 2 2
2 5 8 9 8 6 5 8 4 5 5 11 8 9 8 10 10 6 4 4 3 2 1 3 4 3 3 5 6 5 5 6 5 4 5 4 3 3 3 2 2 2 2 3
5 9 6 10 9 10 8 5 6 5 7 9 9 8 10 9 7 6 6 3 2 2 2 5 5 4 5 6 5 5 5 5 5 4 4 4 3 3 3 3 4 3 3 3
8 10 6 8 5 2 7 9 9 8 6 6 8 11 11 6 4 5 5 2 1 1 3 5 4 5 6 6 5 5 5 4 5 3 3 3 3 3 6 6 7 9 11 6
8 2 6 6 4 3 5 3 5 8 8 12 12 12 8 4 4 5 4 2 2 3 4 4 5 5 5 6 5 6 5 6 4 4 3 3 3 4 3 4 6 6 8 8
7 2 5 4 5 4 6 8 13 13 13 12 13 8 5 5 5 5 3 3 2 2 3 4 5 5 6 6 5 6 6 8 5 4 4 4 4 4 3 3 3 3 5 5
7 7 3 2 6 7 9 12 15 13 10 11 4 4 5 5 5 4 4 3 2 2 4 5 5 7 7 5 5 6 6 5 5 4 4 4 3 3 3 3 4 4 2 3
5 4 5 9 11 11 13 14 16 12 8 2 4 4 5 4 5 4 4 3 1 4 6 4 6 9 6 6 6 5 7 7 7 4 4 4 3 3 3 4 5 5 4 4
2 5 10 12 13 14 13 11 9 7 5 5 6 4 4 4 3 3 4 4 5 6 5 6 10 7 6 6 6 5 6 5 7 5 4 5 4 4 4 4 6 5 5 4
16 18 15 13 12 11 7 6 3 3 5 4 3 3 3 4 5 4 5 3 3 5 8 9 7 6 5 6 5 5 5 6 7 7 5 5 5 5 4 4 5 6 5 4
17 17 14 11 7 5 4 4 3 2 1 3 3 6 4 4 4 4 1 3 5 7 8 6 5 5 7 7 6 4 6 8 7 6 6 4 2 3 4 5 7 7 6 6
11 8 6 4 4 3 3 3 2 3 3 2 3 3 5 6 3 4 1 8 10 7 5 6 5 6 8 8 8 5 6 8 7 6 4 4 4 4 5 8 6 6 6 7
4 2 2 3 3 3 3 2 2 3 2 3 4 5 4 7 4 4 7 7 6 6 5 6 5 5 5 6 6 6 6 8 6 6 5 6 6 7 7 8 8 8 7 8
1 2 2 1 1 4 2 2 3 3 5 6 5 5 7 11 8 6 8 9 5 5 3 3 4 7 5 7 6 7 6 7 7 6 6 6 7 8 8 8 9 9 9 9
4 3 3 3 4 5 6 5 4 4 6 6 6 6 6 6 4 3 8 5 5 6 4 4 6 7 7 6 7 7 6 6 6 6 6 5 7 8 8 8 9 8 9 9
3 4 3 3 1 2 7 8 7 6 4 6 6 7 5 6 5 5 7 10 11 7 6 6 5 5 8 5 6 6 6 5 6 6 6 7 7 8 8 8 9 9 9 11
5 6 6 8 8 6 7 8 7 7 9 9 9 8 7 3 6 7 4 5 7 7 5 5 2 5 3 4 4 4 5 6 6 7 8 9 10 11 10 9 9 9 10 9
8 6 5 6 5 6 7 8 8 8 9 10 10 9 9 6 6 6 7 8 6 6 2 2 3 3 2 2 2 3 3 5 5 6 7 7 9 10 11 13 12 10 9 10
7 9 7 6 7 8 8 9 9 10 9 10 12 10 6 8 8 8 9 7 3 2 3 3 3 3 2 2 3 3 3 3 4 6 7 8 9 10 11 12 13 13 9 9
Wind_Direction
79 11 329 254 193 183 191 183 167 243 214 232 216 206 190 162 155 162 182 191 202 197 204 182 192 206 200 225 247 249 256 260 259 293 302 300 295 287 298 309 292 293 313 313
193 0 10 282 255 224 221 206 257 263 275 214 257 127 157 173 169 178 186 199 198 190 206 204 198 200 211 247 269 270 284 284 299 296 302 285 286 307 310 309 309 318 5 53
259 3 344 328 221 199 197 196 170 203 238 164 187 196 183 168 176 185 187 194 192 199 207 196 197 193 228 279 307 312 295 292 281 287 296 288 302 303 301 299 305 347 79 79
188 26 353 238 238 214 215 225 206 239 222 196 209 108 143 175 179 190 197 197 207 205 185 160 171 201 307 309 304 300 298 287 294 298 285 292 302 297 291 284 312 126 100 81
136 201 299 294 197 182 175 261 197 207 169 137 98 70 285 200 190 193 197 200 194 164 144 141 152 318 305 308 310 307 299 296 285 283 296 302 306 301 297 190 145 158 137 105
93 146 222 241 269 167 115 293 201 165 167 153 130 148 240 184 179 195 181 157 145 129 117 105 28 2 333 306 309 301 299 288 291 296 295 301 298 302 270 239 172 135 125 116
133 231 286 243 221 172 99 243 164 172 168 151 190 201 194 160 158 160 143 128 116 111 126 111 67 360 308 305 293 295 303 304 299 295 290 300 313 296 269 157 140 124 124 128
102 70 280 160 60 165 219 258 189 182 183 192 192 148 149 136 127 130 129 120 121 116 101 84 10 329 289 299 303 309 315 307 300 281 295 326 308 303 164 148 155 157 96 313
182 214 228 236 221 251 183 214 211 192 195 199 167 170 155 134 124 132 126 118 108 117 112 347 334 330 307 294 311 306 316 315 309 291 289 318 295 241 208 187 161 218 228 243
74 261 232 229 261 232 221 228 231 240 193 168 167 159 148 138 125 133 131 127 124 102 3 314 315 296 280 299 307 308 307 315 311 283 298 292 269 240 205 182 198 239 238 246
262 280 278 263 233 246 242 221 210 204 190 183 142 134 131 128 132 142 137 127 93 57 316 294 299 286 311 311 316 290 288 291 293 255 253 273 254 214 205 219 195 210 226 208
229 236 202 247 263 231 204 218 211 168 117 67 110 111 114 105 116 129 134 114 73 312 279 289 310 308 312 306 303 292 278 274 290 273 234 245 243 257 247 227 252 249 249 189
249 262 215 260 289 235 234 172 125 110 117 116 114 115 103 143 144 131 123 139 194 268 288 316 319 301 290 287 293 289 272 275 283 256 225 223 226 223 238 287 260 249 250 264
246 155 279 219 255 167 129 107 100 96 92 91 95 89 165 143 141 145 164 190 227 274 316 303 284 290 283 279 283 272 268 265 262 255 224 225 224 220 197 210 234 276 281 247
294 227 267 49 79 74 99 105 91 81 82 87 108 149 139 149 164 177 183 190 222 282 275 271 287 280 275 277 272 272 273 269 261 247 226 225 221 208 212 222 229 239 294 299
328 32 68 84 86 82 95 106 102 93 90 156 189 174 178 175 173 193 187 170 202 267 274 284 276 271 284 281 273 281 288 265 262 242 233 226 211 204 224 233 238 230 233 239
104 73 80 77 83 85 82 77 83 145 170 184 198 184 187 201 221 228 225 218 219 249 260 257 261 276 281 285 274 283 273 264 263 248 217 219 217 221 227 227 242 233 230 223
73 72 78 83 84 82 63 57 49 200 218 217 154 147 191 203 232 246 247 263 295 299 267 256 251 257 272 271 268 276 273 277 272 256 224 213 220 219 220 223 226 233 244 247
71 78 76 71 73 99 162 212 240 263 215 175 177 228 237 244 243 259 263 305 277 259 266 250 249 251 259 259 264 262 273 277 272 253 232 220 231 224 229 237 248 247 239 236
85 91 111 116 44 21 266 252 243 241 252 205 241 260 279 277 235 279 237 247 247 239 267 276 270 262 263 269 264 254 271 275 269 253 232 226 225 239 233 235 234 238 238 235
98 157 166 202 212 230 240 261 247 267 274 184 225 267 275 303 301 247 253 257 250 229 248 267 265 269 269 276 274 270 276 277 261 254 234 225 229 232 234 235 237 237 241 241
19 41 13 350 351 330 300 287 313 309 323 325 313 287 268 262 256 241 229 239 276 254 250 256 265 269 276 289 279 270 277 283 266 253 246 244 242 246 245 241 236 235 234 229
5 356 351 338 311 307 324 303 283 254 264 256 253 254 234 256 239 258 288 247 236 246 246 254 262 274 286 293 297 274 273 267 281 289 271 253 260 261 259 258 254 249 246 237
337 2 7 353 310 360 0 347 337 317 261 284 275 265 260 287 289 230 244 272 264 264 265 265 257 265 308 295 295 300 289 291 288 288 280 271 266 265 264 263 260 257 251 249
30 28 25 26 29 10 351 344 331 332 331 325 318 315 303 259 249 287 268 260 260 266 262 260 347 30 16 13 352 340 336 339 341 331 331 326 318 308 281 262 256 256 256 250
39 31 15 20 16 358 350 344 336 332 330 324 321 315 308 296 285 279 280 278 273 267 224 125 87 75 52 21 344 323 326 333 339 334 322 314 314 313 305 302 284 254 252 252
38 27 12 8 10 3 354 339 330 328 325 318 314 313 297 298 293 287 281 273 265 149 127 98 75 60 36 22 353 340 326 328 327 327 328 321 319 311 307 306 294 288 264 256